Location: Ostrava
(49.8333°N, 18.2833°E)
Time: 16:38:00
(UTC+02:00)

ISS - Visible Passes

Search period start: 26 September 2018 00:00
Search period end: 06 October 2018 00:00
Orbit: 403 x 408 km, 51.6° (Epoch: 26 September)

Date Brightness Start Highest point End Pass type
(mag) Time Alt. Az. Time Alt. Az. Time Alt. Az.
26 Sep -3.9 20:12:12 10° WSW 20:15:30 78° SSE 20:16:23 45° E visible
26 Sep -0.5 21:48:50 10° W 21:49:04 12° W 21:49:04 12° W visible
27 Sep -3.6 19:20:24 10° SW 19:23:38 54° SSE 19:26:35 12° ENE visible
27 Sep -2.6 20:56:52 10° W 20:59:15 42° WNW 20:59:15 42° WNW visible
28 Sep -3.7 20:04:53 10° W 20:08:11 74° NNW 20:09:23 36° ENE visible
28 Sep -0.6 21:41:35 10° WNW 21:42:03 13° WNW 21:42:03 13° WNW visible
29 Sep -3.8 19:12:56 10° WSW 19:16:14 87° SSE 19:19:26 11° ENE visible
29 Sep -2.7 20:49:36 10° W 20:52:07 44° NW 20:52:07 44° NW visible
30 Sep -3.5 19:57:36 10° W 20:00:52 62° N 20:02:08 33° ENE visible
30 Sep -0.6 21:34:13 10° WNW 21:34:48 14° WNW 21:34:48 14° WNW visible
01 Oct -3.6 19:05:34 10° W 19:08:52 69° N 19:12:07 10° ENE visible
01 Oct -2.9 20:42:15 10° WNW 20:44:47 48° NW 20:44:47 48° NW visible
02 Oct -3.6 19:50:15 10° WNW 19:53:32 62° N 19:54:46 33° ENE visible
02 Oct -0.7 21:26:49 10° WNW 21:27:26 15° WNW 21:27:26 15° WNW visible
03 Oct -3.5 18:58:12 10° W 19:01:29 61° N 19:04:44 10° E visible
03 Oct -3.0 20:34:49 10° WNW 20:37:24 52° WNW 20:37:24 52° WNW visible
04 Oct -3.8 19:42:48 10° WNW 19:46:07 75° NNE 19:47:23 34° E visible
04 Oct -0.7 21:19:26 10° W 21:20:03 14° W 21:20:03 14° W visible
05 Oct -3.6 18:50:46 10° WNW 18:54:04 64° N 18:57:21 10° E visible
05 Oct -2.9 20:27:20 10° WNW 20:30:03 46° WSW 20:30:03 46° WSW visible
